| time (UTC) | temp F | wind direction | speed MPH | gust MPH | rain 1hr in | rain 24hr in | rain mn in | humidity % | barometer mb |
| 20260504191556 | 75 | 259 | 3.0 | 11.0 | 0.00 | 0.00 | 0.00 | 31 | 1007.6 |
| 20260504191038 | 75 | 238 | 6.0 | 11.0 | 0.00 | 0.00 | 0.00 | 29 | 1007.6 |
| 20260504190539 | 75 | 252 | 1.0 | 9.0 | 0.00 | 0.00 | 0.00 | 30 | 1007.6 |
| 20260504190107 | 75 | 351 | 5.0 | 9.0 | 0.00 | 0.00 | 0.00 | 29 | 1007.7 |
| 20260504185543 | 76 | 270 | 4.0 | 9.0 | 0.00 | 0.00 | 0.00 | 30 | 1007.8 |
| 20260504185038 | 75 | 202 | 2.0 | 5.0 | 0.00 | 0.00 | 0.00 | 29 | 1007.8 |
| 20260504184602 | 75 | 0 | 1.0 | 10.0 | 0.00 | 0.00 | 0.00 | 30 | 1007.8 |
| 20260504184038 | 75 | 0 | 1.0 | 10.0 | 0.00 | 0.00 | 0.00 | 32 | 1007.8 |
| 20260504183538 | 76 | 263 | 5.0 | 10.0 | 0.00 | 0.00 | 0.00 | 30 | 1007.9 |
| 20260504183056 | 76 | 234 | 4.0 | 9.0 | 0.00 | 0.00 | 0.00 | 30 | 1008.0 |
| 20260504182537 | 76 | 211 | 3.0 | 10.0 | 0.00 | 0.00 | 0.00 | 30 | 1008.0 |
| 20260504182042 | 76 | 200 | 5.0 | 10.0 | 0.00 | 0.00 | 0.00 | 31 | 1008.1 |
| 20260504181554 | 76 | 0 | 3.0 | 10.0 | 0.00 | 0.00 | 0.00 | 33 | 1008.2 |
| 20260504181038 | 75 | 213 | 2.0 | 10.0 | 0.00 | 0.00 | 0.00 | 31 | 1008.2 |
| 20260504180540 | 75 | 123 | 4.0 | 10.0 | 0.00 | 0.00 | 0.00 | 33 | 1008.3 |
| 20260504180054 | 75 | 167 | 2.0 | 8.0 | 0.00 | 0.00 | 0.00 | 31 | 1008.5 |
| 20260504175538 | 75 | 0 | 2.0 | 8.0 | 0.00 | 0.00 | 0.00 | 31 | 1008.5 |
| 20260504175038 | 75 | 128 | 4.0 | 8.0 | 0.00 | 0.00 | 0.00 | 32 | 1008.6 |
| 20260504174546 | 74 | 43 | 2.0 | 11.0 | 0.00 | 0.00 | 0.00 | 33 | 1008.6 |
| 20260504174038 | 74 | 153 | 3.0 | 11.0 | 0.00 | 0.00 | 0.00 | 32 | 1008.6 |
| 20260504173538 | 74 | 155 | 5.0 | 11.0 | 0.00 | 0.00 | 0.00 | 31 | 1008.7 |
| 20260504173047 | 74 | 215 | 0.0 | 10.0 | 0.00 | 0.00 | 0.00 | 32 | 1008.7 |
| 20260504172538 | 74 | 109 | 4.0 | 10.0 | 0.00 | 0.00 | 0.00 | 33 | 1008.7 |
| 20260504172038 | 74 | 180 | 2.0 | 8.0 | 0.00 | 0.00 | 0.00 | 35 | 1008.7 |
| 20260504171554 | 73 | 157 | 3.0 | 8.0 | 0.00 | 0.00 | 0.00 | 34 | 1008.8 |
| 20260504171040 | 73 | 188 | 3.0 | 13.0 | 0.00 | 0.00 | 0.00 | 35 | 1008.8 |
| 20260504170539 | 73 | 132 | 7.0 | 13.0 | 0.00 | 0.00 | 0.00 | 34 | 1008.8 |
| 20260504151037 | 67 | 140 | 6.0 | 9.0 | 0.00 | 0.00 | 0.00 | 44 | 1009.3 |
| 20260504150537 | 66 | 109 | 4.0 | 9.0 | 0.00 | 0.00 | 0.00 | 45 | 1009.4 |
| 20260504141037 | 59 | 140 | 3.0 | 7.0 | 0.00 | 0.00 | 0.00 | 55 | 1009.4 |
| 20260504140537 | 58 | 145 | 3.0 | 7.0 | 0.00 | 0.00 | 0.00 | 56 | 1009.4 |
| 20260504130538 | 47 | 360 | 3.0 | 8.0 | 0.00 | 0.00 | 0.00 | 62 | 1009.5 |
| 20260504110541 | 49 | 57 | 3.0 | 7.0 | 0.00 | 0.00 | 0.00 | 60 | 1009.4 |
| 20260504100539 | 51 | 0 | 0.0 | 3.0 | 0.00 | 0.00 | 0.00 | 59 | 1009.1 |
| 20260504081553 | 53 | 360 | 1.0 | 3.0 | 0.00 | 0.00 | 0.00 | 47 | 1008.2 |
| 20260504081039 | 53 | 274 | 2.0 | 6.0 | 0.00 | 0.00 | 0.00 | 47 | 1008.2 |
| 20260504080539 | 53 | 360 | 3.0 | 6.0 | 0.00 | 0.00 | 0.00 | 45 | 1008.2 |
| 20260504050539 | 54 | 62 | 2.0 | 3.0 | 0.00 | 0.00 | 0.00 | 48 | 1008.8 |
| 20260504045538 | 55 | 45 | 2.0 | 3.0 | 0.00 | 0.00 | 0.00 | 49 | 1008.8 |
| 20260504045037 | 55 | 44 | 2.0 | 4.0 | 0.00 | 0.00 | 0.00 | 48 | 1008.9 |
| 20260504044553 | 55 | 44 | 2.0 | 4.0 | 0.00 | 0.00 | 0.00 | 49 | 1009.0 |
| 20260504044038 | 56 | 43 | 2.0 | 5.0 | 0.00 | 0.00 | 0.00 | 48 | 1008.9 |
| 20260504043538 | 56 | 43 | 3.0 | 5.0 | 0.00 | 0.00 | 0.00 | 47 | 1008.9 |
| 20260504043046 | 57 | 44 | 3.0 | 5.0 | 0.00 | 0.00 | 0.00 | 45 | 1008.9 |
| 20260504042538 | 57 | 42 | 3.0 | 5.0 | 0.00 | 0.00 | 0.00 | 45 | 1008.8 |
| 20260504042037 | 58 | 37 | 3.0 | 4.0 | 0.00 | 0.00 | 0.00 | 41 | 1008.9 |
| 20260504041546 | 58 | 28 | 3.0 | 5.0 | 0.00 | 0.00 | 0.00 | 43 | 1009.0 |
| 20260504041037 | 59 | 26 | 3.0 | 5.0 | 0.00 | 0.00 | 0.00 | 44 | 1009.0 |
| 20260504040538 | 59 | 13 | 3.0 | 4.0 | 0.00 | 0.00 | 0.00 | 41 | 1008.9 |
| 20260504040104 | 60 | 47 | 2.0 | 4.0 | 0.00 | 0.00 | 0.00 | 41 | 1009.0 |
| 20260504035540 | 61 | 47 | 2.0 | 4.0 | 0.00 | 0.00 | 0.00 | 41 | 1009.0 |
| 20260504035037 | 61 | 47 | 2.0 | 4.0 | 0.00 | 0.00 | 0.00 | 35 | 1009.0 |
| 20260504034557 | 62 | 49 | 3.0 | 4.0 | 0.00 | 0.00 | 0.00 | 34 | 1009.0 |
| 20260504034038 | 62 | 90 | 2.0 | 4.0 | 0.00 | 0.00 | 0.00 | 37 | 1009.0 |
| 20260504033538 | 63 | 45 | 2.0 | 4.0 | 0.00 | 0.00 | 0.00 | 38 | 1009.0 |
| 20260504033114 | 63 | 22 | 3.0 | 4.0 | 0.00 | 0.00 | 0.00 | 34 | 1009.0 |
| 20260504032538 | 63 | 17 | 2.0 | 4.0 | 0.00 | 0.00 | 0.00 | 33 | 1009.0 |
| 20260504032038 | 64 | 360 | 2.0 | 4.0 | 0.00 | 0.00 | 0.00 | 31 | 1009.1 |
| 20260504031546 | 64 | 26 | 3.0 | 4.0 | 0.00 | 0.00 | 0.00 | 31 | 1009.0 |
| 20260504031038 | 64 | 22 | 3.0 | 4.0 | 0.00 | 0.00 | 0.00 | 30 | 1009.0 |
| 20260504030537 | 65 | 22 | 3.0 | 5.0 | 0.00 | 0.00 | 0.00 | 30 | 1009.1 |
| 20260504030049 | 65 | 13 | 3.0 | 5.0 | 0.00 | 0.00 | 0.00 | 30 | 1009.0 |
| 20260504025537 | 66 | 360 | 3.0 | 5.0 | 0.00 | 0.00 | 0.00 | 31 | 1009.0 |
| 20260504025037 | 66 | 9 | 3.0 | 5.0 | 0.00 | 0.00 | 0.00 | 29 | 1009.0 |
| 20260504024547 | 67 | 360 | 3.0 | 5.0 | 0.00 | 0.00 | 0.00 | 28 | 1009.0 |
| 20260504024040 | 67 | 352 | 3.0 | 5.0 | 0.00 | 0.00 | 0.00 | 29 | 1009.0 |
| 20260504023539 | 67 | 360 | 3.0 | 5.0 | 0.00 | 0.00 | 0.00 | 28 | 1009.0 |
| 20260504023100 | 68 | 360 | 3.0 | 8.0 | 0.00 | 0.00 | 0.00 | 27 | 1009.0 |
| 20260504022539 | 68 | 360 | 3.0 | 8.0 | 0.00 | 0.00 | 0.00 | 28 | 1009.0 |
| 20260504022037 | 69 | 360 | 4.0 | 9.0 | 0.00 | 0.00 | 0.00 | 27 | 1009.1 |
| 20260504021546 | 70 | 332 | 4.0 | 9.0 | 0.00 | 0.00 | 0.00 | 28 | 1009.1 |
| 20260504021037 | 70 | 320 | 3.0 | 8.0 | 0.00 | 0.00 | 0.00 | 26 | 1009.0 |
| 20260504020540 | 71 | 303 | 3.0 | 9.0 | 0.00 | 0.00 | 0.00 | 27 | 1009.0 |
| 20260504020057 | 71 | 339 | 4.0 | 9.0 | 0.00 | 0.00 | 0.00 | 25 | 1009.1 |
| 20260504015538 | 71 | 331 | 4.0 | 9.0 | 0.00 | 0.00 | 0.00 | 25 | 1009.1 |
| 20260504015039 | 72 | 318 | 3.0 | 8.0 | 0.00 | 0.00 | 0.00 | 25 | 1009.1 |
| 20260504014553 | 72 | 316 | 3.0 | 8.0 | 0.00 | 0.00 | 0.00 | 25 | 1009.2 |
| 20260504014037 | 73 | 317 | 2.0 | 8.0 | 0.00 | 0.00 | 0.00 | 26 | 1009.2 |
| 20260504013537 | 73 | 308 | 3.0 | 8.0 | 0.00 | 0.00 | 0.00 | 23 | 1009.3 |
| 20260504013058 | 73 | 317 | 4.0 | 9.0 | 0.00 | 0.00 | 0.00 | 23 | 1009.3 |
| 20260504012539 | 74 | 334 | 4.0 | 9.0 | 0.00 | 0.00 | 0.00 | 22 | 1009.4 |
| 20260504012039 | 74 | 304 | 5.0 | 9.0 | 0.00 | 0.00 | 0.00 | 23 | 1009.4 |
| 20260504011551 | 75 | 313 | 3.0 | 9.0 | 0.00 | 0.00 | 0.00 | 24 | 1009.5 |
| 20260504011037 | 75 | 294 | 5.0 | 9.0 | 0.00 | 0.00 | 0.00 | 22 | 1009.4 |
| 20260504010538 | 76 | 299 | 6.0 | 9.0 | 0.00 | 0.00 | 0.00 | 21 | 1009.6 |
| 20260504010054 | 76 | 286 | 5.0 | 9.0 | 0.00 | 0.00 | 0.00 | 21 | 1009.6 |
| 20260504005538 | 76 | 266 | 4.0 | 8.0 | 0.00 | 0.00 | 0.00 | 20 | 1009.6 |
| 20260504005038 | 76 | 290 | 3.0 | 10.0 | 0.00 | 0.00 | 0.00 | 21 | 1009.6 |
| 20260504004605 | 76 | 313 | 4.0 | 10.0 | 0.00 | 0.00 | 0.00 | 20 | 1009.7 |
| 20260504004041 | 76 | 296 | 6.0 | 10.0 | 0.00 | 0.00 | 0.00 | 20 | 1009.7 |
| 20260504003537 | 76 | 270 | 4.0 | 12.0 | 0.00 | 0.00 | 0.00 | 21 | 1009.7 |
| 20260504003048 | 76 | 275 | 6.0 | 12.0 | 0.00 | 0.00 | 0.00 | 20 | 1009.7 |
| 20260504002538 | 76 | 292 | 6.0 | 12.0 | 0.00 | 0.00 | 0.00 | 21 | 1009.7 |
| 20260504002037 | 76 | 283 | 1.0 | 6.0 | 0.00 | 0.00 | 0.00 | 21 | 1009.8 |
| 20260504001558 | 76 | 59 | 0.0 | 6.0 | 0.00 | 0.00 | 0.00 | 21 | 1009.8 |
| 20260504001038 | 76 | 330 | 3.0 | 9.0 | 0.00 | 0.00 | 0.00 | 21 | 1009.8 |
| 20260504000538 | 76 | 315 | 2.0 | 9.0 | 0.00 | 0.00 | 0.00 | 21 | 1009.8 |
| 20260504000054 | 77 | 15 | 5.0 | 9.0 | 0.00 | 0.00 | 0.00 | 21 | 1009.9 |
| 20260503235539 | 77 | 309 | 3.0 | 8.0 | 0.00 | 0.00 | 0.00 | 23 | 1009.9 |
| 20260503235038 | 77 | 273 | 2.0 | 8.0 | 0.00 | 0.00 | 0.00 | 22 | 1009.9 |
| 20260503234547 | 77 | 223 | 5.0 | 8.0 | 0.00 | 0.00 | 0.00 | 21 | 1009.9 |
| 20260503234039 | 77 | 284 | 4.0 | 8.0 | 0.00 | 0.00 | 0.00 | 21 | 1010.1 |
| 20260503233541 | 77 | 236 | 3.0 | 9.0 | 0.00 | 0.00 | 0.00 | 23 | 1010.0 |
| 20260503233050 | 77 | 288 | 3.0 | 11.0 | 0.00 | 0.00 | 0.00 | 21 | 1010.0 |
| 20260503232541 | 77 | 236 | 5.0 | 12.0 | 0.00 | 0.00 | 0.00 | 21 | 1010.1 |
| 20260503232037 | 77 | 274 | 8.0 | 12.0 | 0.00 | 0.00 | 0.00 | 21 | 1010.1 |
| 20260503231556 | 77 | 332 | 6.0 | 12.0 | 0.00 | 0.00 | 0.00 | 21 | 1010.1 |
| 20260503231038 | 77 | 348 | 4.0 | 8.0 | 0.00 | 0.00 | 0.00 | 22 | 1010.2 |
| 20260503230538 | 77 | 0 | 1.0 | 9.0 | 0.00 | 0.00 | 0.00 | 23 | 1010.1 |
| 20260503230057 | 77 | 0 | 1.0 | 9.0 | 0.00 | 0.00 | 0.00 | 20 | 1010.2 |
| 20260503225537 | 77 | 274 | 3.0 | 11.0 | 0.00 | 0.00 | 0.00 | 21 | 1010.2 |
| 20260503225038 | 77 | 0 | 2.0 | 11.0 | 0.00 | 0.00 | 0.00 | 21 | 1010.4 |
| 20260503224548 | 77 | 289 | 7.0 | 11.0 | 0.00 | 0.00 | 0.00 | 21 | 1010.4 |
| 20260503224039 | 77 | 273 | 3.0 | 8.0 | 0.00 | 0.00 | 0.00 | 22 | 1010.5 |
| 20260503223538 | 77 | 252 | 2.0 | 6.0 | 0.00 | 0.00 | 0.00 | 21 | 1010.6 |
| 20260503223051 | 77 | 0 | 2.0 | 6.0 | 0.00 | 0.00 | 0.00 | 22 | 1010.7 |
| 20260503222537 | 78 | 26 | 1.0 | 11.0 | 0.00 | 0.00 | 0.00 | 23 | 1010.8 |
| 20260503222039 | 78 | 0 | 1.0 | 11.0 | 0.00 | 0.00 | 0.00 | 23 | 1010.8 |
| 20260503221551 | 78 | 319 | 7.0 | 13.0 | 0.00 | 0.00 | 0.00 | 20 | 1010.9 |
| 20260503221038 | 79 | 285 | 3.0 | 13.0 | 0.00 | 0.00 | 0.00 | 21 | 1011.0 |
| 20260503220538 | 79 | 261 | 8.0 | 13.0 | 0.00 | 0.00 | 0.00 | 22 | 1011.1 |
| 20260503220047 | 79 | 170 | 6.0 | 10.0 | 0.00 | 0.00 | 0.00 | 25 | 1011.1 |
| 20260503215539 | 79 | 339 | 2.0 | 8.0 | 0.00 | 0.00 | 0.00 | 21 | 1011.3 |
| 20260503215038 | 79 | 309 | 2.0 | 8.0 | 0.00 | 0.00 | 0.00 | 22 | 1011.4 |
| 20260503214548 | 78 | 180 | 3.0 | 15.0 | 0.00 | 0.00 | 0.00 | 22 | 1011.5 |
| 20260503214043 | 78 | 248 | 4.0 | 15.0 | 0.00 | 0.00 | 0.00 | 21 | 1011.6 |
| 20260503213539 | 78 | 309 | 7.0 | 14.0 | 0.00 | 0.00 | 0.00 | 21 | 1011.8 |
| 20260503213059 | 78 | 307 | 4.0 | 9.0 | 0.00 | 0.00 | 0.00 | 20 | 1011.8 |
| 20260503212538 | 79 | 14 | 5.0 | 9.0 | 0.00 | 0.00 | 0.00 | 22 | 1011.8 |
| 20260503212038 | 79 | 338 | 5.0 | 9.0 | 0.00 | 0.00 | 0.00 | 21 | 1011.9 |
| 20260503211552 | 79 | 237 | 4.0 | 11.0 | 0.00 | 0.00 | 0.00 | 19 | 1012.1 |
| 20260503211038 | 79 | 206 | 4.0 | 11.0 | 0.00 | 0.00 | 0.00 | 19 | 1012.1 |
| 20260503210540 | 79 | 212 | 4.0 | 10.0 | 0.00 | 0.00 | 0.00 | 20 | 1012.1 |
| 20260503210055 | 79 | 257 | 4.0 | 10.0 | 0.00 | 0.00 | 0.00 | 20 | 1012.2 |
| 20260503205538 | 79 | 194 | 6.0 | 9.0 | 0.00 | 0.00 | 0.00 | 19 | 1012.2 |
| 20260503205038 | 79 | 272 | 3.0 | 11.0 | 0.00 | 0.00 | 0.00 | 21 | 1012.3 |
| 20260503204552 | 78 | 261 | 4.0 | 11.0 | 0.00 | 0.00 | 0.00 | 19 | 1012.3 |
| 20260503204038 | 78 | 288 | 5.0 | 11.0 | 0.00 | 0.00 | 0.00 | 20 | 1012.4 |
| 20260503203539 | 78 | 225 | 4.0 | 9.0 | 0.00 | 0.00 | 0.00 | 20 | 1012.4 |
| 20260503203043 | 78 | 264 | 1.0 | 9.0 | 0.00 | 0.00 | 0.00 | 19 | 1012.6 |
| 20260503202538 | 78 | 360 | 4.0 | 9.0 | 0.00 | 0.00 | 0.00 | 20 | 1012.7 |
| 20260503202037 | 79 | 284 | 3.0 | 8.0 | 0.00 | 0.00 | 0.00 | 19 | 1012.9 |
| 20260503201548 | 79 | 315 | 4.0 | 8.0 | 0.00 | 0.00 | 0.00 | 18 | 1012.8 |
| 20260503201039 | 79 | 273 | 3.0 | 8.0 | 0.00 | 0.00 | 0.00 | 20 | 1012.9 |
| 20260503200537 | 78 | 193 | 2.0 | 7.0 | 0.00 | 0.00 | 0.00 | 18 | 1012.9 |
| 20260503200057 | 78 | 216 | 1.0 | 8.0 | 0.00 | 0.00 | 0.00 | 21 | 1013.0 |
| 20260503195538 | 77 | 160 | 4.0 | 9.0 | 0.00 | 0.00 | 0.00 | 25 | 1013.1 |
| 20260503195039 | 78 | 112 | 4.0 | 10.0 | 0.00 | 0.00 | 0.00 | 23 | 1013.1 |
| 20260503194547 | 78 | 168 | 5.0 | 10.0 | 0.00 | 0.00 | 0.00 | 23 | 1013.2 |
| 20260503194038 | 77 | 180 | 3.0 | 7.0 | 0.00 | 0.00 | 0.00 | 23 | 1013.3 |
| 20260503193538 | 77 | 284 | 2.0 | 10.0 | 0.00 | 0.00 | 0.00 | 24 | 1013.3 |
| 20260503193053 | 76 | 86 | 0.0 | 10.0 | 0.00 | 0.00 | 0.00 | 23 | 1013.3 |
| 20260503192539 | 77 | 192 | 6.0 | 10.0 | 0.00 | 0.00 | 0.00 | 23 | 1013.5 |
| 20260503192039 | 77 | 211 | 3.0 | 8.0 | 0.00 | 0.00 | 0.00 | 26 | 1013.5 |